• In Uzbekistan
  • List of Countries
  • For 7 days
  • Water Temperature
  • Satellite Maps
  • Weather Map
  • Weather Widgets
  • user-avatar
    Login

    Hourly Weather Prutz

    Today, 20 October, Friday

    Time Temperature Precipitation Wind Pressure Humidity
    00:00 +6°C° 0 mm 2 mps 633 mmHg 56%
    01:00 +6°C° 0 mm 2 mps 633 mmHg 58%
    02:00 +6°C° 0 mm 2 mps 633 mmHg 62%
    03:00 +6°C° 0 mm 2 mps 633 mmHg 65%
    04:00 +6°C° 0 mm 2 mps 633 mmHg 68%
    05:00 +6°C° 0 mm 2 mps 633 mmHg 70%
    06:00 +6°C° 0 mm 2 mps 633 mmHg 71%
    07:00 +5°C° 0 mm 2 mps 633 mmHg 73%
    08:00 +9°C° 0 mm 1 mps 634 mmHg 64%
    09:00 +11°C° 0 mm 1 mps 635 mmHg 55%
    10:00 +14°C° 0 mm 1 mps 636 mmHg 46%
    11:00 +15°C° 0 mm 1 mps 636 mmHg 44%
    12:00 +15°C° 0 mm 1 mps 637 mmHg 41%
    13:00 +16°C° 0 mm 1 mps 637 mmHg 39%
    14:00 +15°C° 0 mm 1 mps 637 mmHg 44%
    15:00 +14°C° 0 mm 1 mps 636 mmHg 48%
    16:00 +14°C° 0 mm 1 mps 636 mmHg 53%
    17:00 +11°C° 0 mm 1 mps 636 mmHg 63%
    18:00 +9°C° 0 mm 1 mps 635 mmHg 72%
    19:00 +6°C° 0 mm 0 mps 634 mmHg 82%
    20:00 +7°C° 0 mm 1 mps 635 mmHg 80%
    21:00 +7°C° 0 mm 1 mps 635 mmHg 78%
    22:00 +7°C° 0 mm 1 mps 635 mmHg 76%
    23:00 +7°C° 0 mm 1 mps 635 mmHg 73%

    Tomorrow, 21 October, Saturday

    Time Temperature Precipitation Wind Pressure Humidity
    00:00 +7°C° 0 mm 1 mps 635 mmHg 71%
    01:00 +7°C° 0 mm 1 mps 635 mmHg 68%
    02:00 +7°C° 0 mm 1 mps 635 mmHg 67%
    03:00 +6°C° 0 mm 1 mps 634 mmHg 66%
    04:00 +6°C° 0 mm 1 mps 634 mmHg 65%
    05:00 +6°C° 0 mm 1 mps 634 mmHg 64%
    06:00 +6°C° 0 mm 1 mps 634 mmHg 63%
    07:00 +6°C° 0 mm 1 mps 634 mmHg 62%
    08:00 +9°C° 0 mm 1 mps 635 mmHg 56%
    09:00 +11°C° 0 mm 1 mps 636 mmHg 49%
    10:00 +13°C° 0 mm 0 mps 637 mmHg 43%
    11:00 +14°C° 0 mm 1 mps 637 mmHg 41%
    12:00 +15°C° 0 mm 1 mps 637 mmHg 39%
    13:00 +16°C° 0 mm 1 mps 637 mmHg 37%
    14:00 +15°C° 0 mm 1 mps 636 mmHg 43%
    15:00 +15°C° 0 mm 1 mps 636 mmHg 50%
    16:00 +14°C° 0 mm 1 mps 635 mmHg 56%
    17:00 +12°C° 0 mm 1 mps 635 mmHg 63%
    18:00 +10°C° 0 mm 1 mps 634 mmHg 71%
    19:00 +8°C° 0 mm 1 mps 634 mmHg 79%
    20:00 +7°C° 0 mm 1 mps 634 mmHg 81%
    21:00 +7°C° 0 mm 1 mps 634 mmHg 83%
    22:00 +7°C° 0 mm 1 mps 634 mmHg 85%
    23:00 +7°C° 0.3 mm 1 mps 634 mmHg 88%

    Day after tomorrow, 22 October, Sunday

    Time Temperature Precipitation Wind Pressure Humidity
    00:00 +6°C° 0.3 mm 1 mps 634 mmHg 90%
    01:00 +6°C° 0.3 mm 1 mps 634 mmHg 93%
    02:00 +6°C° 0.6 mm 1 mps 634 mmHg 94%
    03:00 +6°C° 0.6 mm 1 mps 633 mmHg 94%
    04:00 +5°C° 0.6 mm 1 mps 633 mmHg 95%
    05:00 +5°C° 0.8 mm 1 mps 633 mmHg 95%
    06:00 +5°C° 0.8 mm 1 mps 633 mmHg 95%
    07:00 +5°C° 0.8 mm 1 mps 633 mmHg 95%
    08:00 +4°C° 1.6 mm 2 mps 633 mmHg 94%
    09:00 +4°C° 1.6 mm 2 mps 632 mmHg 93%
    10:00 +4°C° 1.6 mm 2 mps 632 mmHg 93%
    11:00 +3°C° 1.5 mm 2 mps 632 mmHg 92%
    12:00 +3°C° 1.5 mm 2 mps 632 mmHg 92%
    13:00 +2°C° 1.5 mm 3 mps 631 mmHg 92%
    14:00 +1°C° 0.9 mm 3 mps 631 mmHg 92%
    15:00 +1°C° 0.9 mm 3 mps 631 mmHg 92%
    16:00 +1°C° 0.9 mm 3 mps 630 mmHg 92%
    17:00 0°C° 0.6 mm 3 mps 631 mmHg 93%
    18:00 0°C° 0.6 mm 3 mps 631 mmHg 94%
    19:00 -1°C° 0.6 mm 3 mps 631 mmHg 94%
    20:00 -1°C° 0.4 mm 3 mps 631 mmHg 95%
    21:00 -1°C° 0.4 mm 3 mps 632 mmHg 95%
    22:00 -1°C° 0.4 mm 3 mps 632 mmHg 95%
    23:00 -2°C° 0.2 mm 2 mps 632 mmHg 94%

    23 October, Monday

    Time Temperature Precipitation Wind Pressure Humidity
    00:00 -2°C° 0.2 mm 2 mps 631 mmHg 94%
    01:00 -2°C° 0.2 mm 2 mps 631 mmHg 94%
    02:00 -2°C° 0.1 mm 2 mps 631 mmHg 94%
    03:00 -3°C° 0.1 mm 2 mps 631 mmHg 93%
    04:00 -3°C° 0.1 mm 2 mps 631 mmHg 93%
    05:00 -3°C° 0.5 mm 2 mps 631 mmHg 93%
    06:00 -2°C° 0.5 mm 2 mps 631 mmHg 93%
    07:00 -2°C° 0.5 mm 2 mps 631 mmHg 94%
    08:00 -1°C° 1.1 mm 2 mps 631 mmHg 92%
    09:00 -1°C° 1.1 mm 2 mps 632 mmHg 91%
    10:00 +1°C° 1.1 mm 2 mps 632 mmHg 90%
    11:00 +1°C° 0.8 mm 2 mps 632 mmHg 90%
    12:00 +2°C° 0.8 mm 2 mps 632 mmHg 89%
    13:00 +1°C° 0.8 mm 3 mps 632 mmHg 89%
    14:00 +2°C° 0.5 mm 2 mps 632 mmHg 90%
    15:00 +2°C° 0.5 mm 2 mps 633 mmHg 90%
    16:00 +2°C° 0.5 mm 2 mps 633 mmHg 91%
    17:00 +1°C° 0.6 mm 2 mps 633 mmHg 92%
    18:00 +1°C° 0.6 mm 2 mps 633 mmHg 93%
    19:00 +1°C° 0.6 mm 2 mps 634 mmHg 94%
    20:00 +1°C° 0.6 mm 2 mps 634 mmHg 94%
    21:00 +1°C° 0.6 mm 2 mps 634 mmHg 94%
    22:00 +1°C° 0.6 mm 2 mps 634 mmHg 94%
    23:00 +1°C° 0.4 mm 2 mps 634 mmHg 94%

    24 October, Tuesday

    Time Temperature Precipitation Wind Pressure Humidity
    00:00 +1°C° 0.4 mm 2 mps 634 mmHg 94%
    01:00 +1°C° 0.4 mm 2 mps 634 mmHg 94%
    02:00 +1°C° 0.5 mm 2 mps 634 mmHg 94%
    03:00 +1°C° 0.5 mm 2 mps 634 mmHg 94%
    04:00 +1°C° 0.5 mm 2 mps 634 mmHg 93%
    05:00 +2°C° 1.2 mm 2 mps 634 mmHg 94%
    06:00 +2°C° 1.2 mm 2 mps 634 mmHg 94%
    07:00 +2°C° 1.2 mm 2 mps 634 mmHg 94%
    08:00 +3°C° 1 mm 2 mps 635 mmHg 94%
    09:00 +4°C° 1 mm 2 mps 635 mmHg 94%
    10:00 +4°C° 1 mm 2 mps 635 mmHg 94%
    11:00 +5°C° 0.3 mm 2 mps 636 mmHg 94%
    12:00 +5°C° 0.3 mm 2 mps 636 mmHg 94%
    13:00 +6°C° 0.3 mm 2 mps 636 mmHg 94%
    14:00 +6°C° 0.5 mm 2 mps 636 mmHg 94%
    15:00 +6°C° 0.5 mm 2 mps 636 mmHg 95%
    16:00 +5°C° 0.5 mm 2 mps 636 mmHg 96%
    17:00 +5°C° 0.2 mm 2 mps 636 mmHg 96%
    18:00 +5°C° 0.2 mm 2 mps 636 mmHg 97%
    19:00 +4°C° 0.2 mm 2 mps 637 mmHg 97%
    20:00 +4°C° 0.1 mm 2 mps 637 mmHg 97%
    21:00 +4°C° 0.1 mm 2 mps 637 mmHg 97%
    22:00 +4°C° 0.1 mm 2 mps 637 mmHg 97%
    23:00 +4°C° 0 mm 2 mps 637 mmHg 97%

    25 October, Wednesday

    Time Temperature Precipitation Wind Pressure Humidity
    00:00 +4°C° 0 mm 2 mps 637 mmHg 97%
    01:00 +3°C° 0 mm 2 mps 637 mmHg 97%
    02:00 +3°C° 0 mm 2 mps 637 mmHg 96%
    03:00 +2°C° 0 mm 2 mps 637 mmHg 95%
    04:00 +2°C° 0 mm 2 mps 637 mmHg 95%
    05:00 +2°C° 0 mm 2 mps 637 mmHg 92%
    06:00 +3°C° 0 mm 1 mps 637 mmHg 90%
    07:00 +3°C° 0 mm 1 mps 637 mmHg 88%
    08:00 +5°C° 0 mm 1 mps 638 mmHg 88%
    09:00 +7°C° 0 mm 1 mps 639 mmHg 89%
    10:00 +9°C° 0 mm 1 mps 640 mmHg 90%
    11:00 +9°C° 0 mm 1 mps 640 mmHg 88%
    12:00 +10°C° 0 mm 1 mps 640 mmHg 86%
    13:00 +11°C° 0 mm 1 mps 640 mmHg 84%
    14:00 +10°C° 0 mm 1 mps 639 mmHg 85%
    15:00 +10°C° 0 mm 1 mps 639 mmHg 86%
    16:00 +9°C° 0 mm 1 mps 639 mmHg 87%
    17:00 +8°C° 0 mm 1 mps 639 mmHg 82%
    18:00 +7°C° 0 mm 1 mps 639 mmHg 78%
    19:00 +5°C° 0 mm 1 mps 639 mmHg 73%
    20:00 +5°C° 0 mm 1 mps 639 mmHg 70%
    21:00 +5°C° 0 mm 1 mps 639 mmHg 68%
    22:00 +5°C° 0 mm 1 mps 639 mmHg 65%
    23:00 +5°C° 0 mm 1 mps 639 mmHg 64%
    Show more